Location: Kumla
(59.1265°N, 15.1401°E)
Time: 02:06:08
(UTC+01:00)

Vanguard 2 Rocket - Pass Details

Date: 11 December 2023
Orbit: 554 x 3310 km, 32.9° (Epoch: 20 February)

Event Time Altitude Azimuth Distance (km) Brightness Sun altitude
Rises 16:57:15 0° 256° (WSW) 6,658 13.2 -12.9°
Reaches altitude 10° 17:02:44 10° 245° (WSW) 5,940 12.5 -13.5°
Maximum altitude 17:15:58 24° 201° (SSW) 5,145 11.2 -15.1°
Drops below altitude 10° 17:29:23 10° 157° (SSE) 6,001 11.0 -16.7°
Sets 17:35:01 0° 146° (SE) 6,736 11.1 -17.4°
